Flight Track Log - Related Links

Times and Time Zones

All times are in EDT time to prevent confusion due to time zone crossing. See the EJA304 flight status page for this flight to view local times or setup timezone preferences in your user account.

Time Position Orientation Groundspeed Altitude Reporting Facility
EDT Latitude Longitude Course Direction KTS MPH feet Rate Location/Type
Fri 05:54:35 PM 43.1078 -76.1233 265° West 121 139 1,700  Level Boston Center
Fri 05:55:35 PM 43.1036 -76.1858 265° West 198 228 3,000 1,171 Climbing Boston Center
Fri 05:56:38 PM 43.0497 -76.1767 173° South 261 300 4,100 1,532 Climbing Boston Center
Fri 05:57:09 PM 43.0322 -76.1386 122° Southeast 261 300 5,400 3,363 Climbing Boston Center
Fri 05:58:09 PM 42.9869 -76.0622 129° Southeast 296 341 9,200 2,727 Climbing Boston Center
Fri 05:59:10 PM 42.9331 -75.9825 133° Southeast 296 341 10,900 2,521 Climbing Boston Center
Fri 06:00:08 PM 42.8814 -75.8972 130° Southeast 290 334 14,200 2,898 Climbing Boston Center
Fri 06:01:08 PM 42.8236 -75.8061 131° Southeast 295 339 16,600 1,350 Climbing Boston Center
Fri 06:02:08 PM 42.7600 -75.7067 131° Southeast 323 372 16,900 149 Climbing Boston Center
Fri 06:03:09 PM 42.6903 -75.5900 129° Southeast 357 411 16,900  Level Boston Center
Fri 06:04:09 PM 42.6181 -75.4817 132° Southeast 373 429 16,900  Level Boston Center
Fri 06:05:10 PM 42.5461 -75.3683 131° Southeast 393 452 16,900  Level Boston Center
Fri 06:05:10 PM 42.5461 -75.3683 131° Southeast 393 452 16,900  Level Boston Center
Fri 06:06:10 PM 42.4739 -75.2522 130° Southeast 398 458 16,900  Level Boston Center
Fri 06:06:10 PM 42.4739 -75.2522 130° Southeast 398 458 16,900  Level Boston Center
Fri 06:07:08 PM 42.3844 -75.1583 142° Southeast 398 458 16,900  Level Boston Center
Fri 06:07:08 PM 42.3844 -75.1583 142° Southeast 398 458 16,900  Level Boston Center
Fri 06:08:09 PM 42.2928 -75.0728 145° Southeast 403 464 16,900  Level Boston Center
Fri 06:08:09 PM 42.2928 -75.0728 145° Southeast 403 464 16,900  Level Boston Center
Fri 06:09:09 PM 42.2072 -74.9881 144° Southeast 398 458 16,900  Level Boston Center
Fri 06:09:09 PM 42.2072 -74.9881 144° Southeast 398 458 16,900  Level Boston Center
Fri 06:10:10 PM 42.1428 -74.8789 129° Southeast 388 447 16,900  Level Boston Center
Fri 06:10:10 PM 42.1428 -74.8789 129° Southeast 388 447 16,900  Level Boston Center
Fri 06:11:08 PM 42.0911 -74.7594 120° Southeast 371 427 16,900  Level Boston Center
Fri 06:11:08 PM 42.0911 -74.7594 120° Southeast 371 427 16,900 -400 Level Boston Center
Fri 06:12:08 PM 42.0356 -74.6175 118° Southeast 383 441 16,500 -400 Descending Boston Center
Fri 06:12:08 PM 42.0356 -74.6175 118° Southeast 383 441 16,500 -1,100 Level Boston Center
Fri 06:13:08 PM 41.9817 -74.4872 119° Southeast 389 448 15,400 -1,100 Descending Boston Center
Fri 06:13:08 PM 41.9817 -74.4872 119° Southeast 389 448 15,400 -492 Level Boston Center
Fri 06:14:09 PM 41.9275 -74.3656 121° Southeast 389 448 14,900 -492 Descending Boston Center
Fri 06:14:09 PM 41.9275 -74.3656 121° Southeast 389 448 14,900 -1,574 Level Boston Center
Fri 06:15:10 PM 41.8756 -74.2414 119° Southeast 379 436 13,300 -1,574 Descending Boston Center
Fri 06:15:10 PM 41.8756 -74.2414 119° Southeast 379 436 13,300 -1,400 Level Boston Center
Fri 06:16:10 PM 41.8211 -74.1256 122° Southeast 373 429 11,900 -1,400 Descending Boston Center
Fri 06:16:10 PM 41.8211 -74.1256 122° Southeast 373 429 11,900 -1,579 Level Boston Center
Fri 06:17:07 PM 41.7722 -74.0294 124° Southeast 336 387 10,400 -1,579 Descending Boston Center
Fri 06:17:07 PM 41.7722 -74.0294 124° Southeast 336 387 10,400 -1,377 Level Boston Center
Fri 06:18:08 PM 41.7297 -73.9506 126° Southeast 306 352 9,000 -1,377 Descending Boston Center
Fri 06:18:08 PM 41.7297 -73.9506 126° Southeast 306 352 9,000 -1,500 Level Boston Center
Fri 06:19:08 PM 41.6789 -73.8547 125° Southeast 288 331 7,500 -1,500 Descending Boston Center
Fri 06:19:08 PM 41.6789 -73.8547 125° Southeast 288 331 7,500 -1,180 Level Boston Center
Fri 06:20:09 PM 41.6100 -73.8589 183° South 248 285 6,300 -1,180 Descending Boston Center
Fri 06:20:09 PM 41.6100 -73.8589 183° South 248 285 6,300 -273 Level Boston Center
Fri 06:21:15 PM 41.5167 -73.8667 184° South 271 312 6,000 -273 Descending New York TRACON
Fri 06:21:15 PM 41.5167 -73.8667 184° South 271 312 6,000 -500 Level New York TRACON
Fri 06:22:15 PM 41.4333 -73.8833 189° South 283 326 5,500 -500 Descending New York TRACON
Fri 06:22:15 PM 41.4333 -73.8833 189° South 283 326 5,500 -1,400 Level New York TRACON
Fri 06:23:15 PM 41.3667 -73.8167 143° Southeast 276 318 4,100 -1,400 Descending New York TRACON
Fri 06:23:15 PM 41.3667 -73.8167 143° Southeast 276 318 4,100 -1,000 Level New York TRACON
Fri 06:24:15 PM 41.3167 -73.7667 143° Southeast 266 306 3,100 -1,000 Descending New York TRACON
Fri 06:24:15 PM 41.3167 -73.7667 143° Southeast 266 306 3,100 -700 Level New York TRACON
Fri 06:25:15 PM 41.2500 -73.7167 151° Southeast 270 311 2,400 -700 Descending New York TRACON
Fri 06:25:15 PM 41.2500 -73.7167 151° Southeast 270 311 2,400 -400 Level New York TRACON
Fri 06:26:15 PM 41.2000 -73.6667 143° Southeast 229 264 2,000 -400 Descending New York TRACON
Fri 06:26:15 PM 41.2000 -73.6667 143° Southeast 229 264 2,000  Level New York TRACON
Fri 06:27:15 PM 41.1500 -73.6167 143° Southeast 212 244 2,000  Level New York TRACON
Fri 06:27:15 PM 41.1500 -73.6167 143° Southeast 212 244 2,000  Level New York TRACON
Fri 06:28:15 PM 41.1000 -73.5833 153° Southeast 220 253 2,000  Level New York TRACON
Fri 06:28:15 PM 41.1000 -73.5833 153° Southeast 220 253 2,000  Level New York TRACON
Fri 06:29:15 PM 41.0333 -73.5833 180° South 200 230 2,000  Level New York TRACON
Fri 06:29:15 PM 41.0333 -73.5833 180° South 200 230 2,000  Level New York TRACON
Fri 06:30:09 PM 41.0000 -73.5833 180° South 199 229 2,000  Level New York TRACON
Fri 06:30:09 PM 41.0000 -73.5833 180° South 199 229 2,000 -182 Level New York TRACON
Fri 06:31:15 PM 41.0000 -73.6500 270° West 153 176 1,800 -182 Descending New York TRACON
Fri 06:31:15 PM 41.0000 -73.6500 270° West 153 176 1,800 -800 Level New York TRACON
Fri 06:32:15 PM 41.0333 -73.6833 323° Northwest 139 160 1,000 -800 Descending New York TRACON
Fri 06:32:15 PM 41.0333 -73.6833 323° Northwest 139 160 1,000  Level New York TRACON

Login

Don't have an account? Register now (free) for customized features, flight alerts, and more!